(°C)
21°
23°
24°
24°
25°
25°
26°
(°C)
23°
25°
25°
26°
26°
26°
27°
СЗ
З
З
ЗЮЗ
ЮЗ
ЮЗ
ЮЗ
(км/ч)
2-7
3-7
5-7
5-9
6-11
7-12
7-12
(мм)
0
0
0
0
0
0
0
(%)
0
0
1
0
0
7
14

Высота солнцестояния

/ 30.8°
sun-icon
UV 5
03:44
21:18
Прибывающая луна (58°)
08:17
00:26

METAR для 55.6°С 37.27°В (UUWW)

Время Условия Температура/
Точка росы
Ветер Видимость Погода Облачность Давление Изменить Необработанный
VFR 22°C / 16°C 40º variable 010º to 100º 4kt >10km - Clouds and Visibility OK 1015 No Significant change UUWW 150430Z 04002MPS 010V100 CAVOK 22/16 Q1015 R24/000070 NOSIG
VFR 20°C / 16°C 10º 4kt >10km - Clouds and Visibility OK 1015 No Significant change UUWW 150400Z 01002MPS CAVOK 20/16 Q1015 R24/000070 NOSIG
VFR 19°C / 16°C 320º 4kt >10km - Clouds and Visibility OK 1015 No Significant change UUWW 150330Z 32002MPS CAVOK 19/16 Q1015 R24/000070 NOSIG
VFR 18°C / 16°C 330º 4kt >10km - Clouds and Visibility OK 1015 No Significant change UUWW 150300Z 33002MPS CAVOK 18/16 Q1015 R24/000070 NOSIG
VFR 17°C / 15°C 330º 4kt >10km - Clouds and Visibility OK 1015 No Significant change UUWW 150230Z 33002MPS CAVOK 17/15 Q1015 R24/000070 NOSIG
VFR 17°C / 15°C 330º 2kt >10km - Clouds and Visibility OK 1015 No Significant change UUWW 150200Z 33001MPS CAVOK 17/15 Q1015 R24/000070 NOSIG
VFR 17°C / 15°C variable 2kt >10km - Clouds and Visibility OK 1015 No Significant change UUWW 150130Z VRB01MPS CAVOK 17/15 Q1015 R24/000070 NOSIG
VFR 16°C / 15°C 310º 4kt >10km - Clouds and Visibility OK 1015 No Significant change UUWW 150100Z 31002MPS CAVOK 16/15 Q1015 R24/000070 NOSIG
VFR 16°C / 14°C 300º 2kt >10km - Clouds and Visibility OK 1015 No Significant change UUWW 150030Z 30001MPS CAVOK 16/14 Q1015 R24/000070 NOSIG
VFR 17°C / 15°C variable 2kt >10km - Clouds and Visibility OK 1015 No Significant change UUWW 150000Z VRB01MPS CAVOK 17/15 Q1015 R24/000070 NOSIG
VFR 18°C / 15°C 250º 2kt >10km - Clouds and Visibility OK 1015 No Significant change UUWW 142330Z 25001MPS CAVOK 18/15 Q1015 R24/000070 NOSIG
VFR 17°C / 15°C variable 0kt >10km - Clouds and Visibility OK 1015 No Significant change UUWW 142300Z 00000MPS CAVOK 17/15 Q1015 R24/000070 NOSIG
VFR 18°C / 15°C variable 2kt >10km - Clouds and Visibility OK 1015 No Significant change UUWW 142230Z VRB01MPS CAVOK 18/15 Q1015 R24/000070 NOSIG
VFR 18°C / 15°C variable 2kt >10km - Clouds and Visibility OK 1015 No Significant change UUWW 142200Z VRB01MPS CAVOK 18/15 Q1015 R24/000070 NOSIG
VFR 19°C / 15°C variable 2kt >10km - Clouds and Visibility OK 1015 No Significant change UUWW 142130Z VRB01MPS CAVOK 19/15 Q1015 R24/000070 NOSIG
VFR 19°C / 15°C variable 0kt >10km - Clouds and Visibility OK 1015 No Significant change UUWW 142100Z 00000MPS CAVOK 19/15 Q1015 R24/000070 NOSIG
VFR 20°C / 15°C variable 2kt >10km - Clouds and Visibility OK 1015 No Significant change UUWW 142030Z VRB01MPS CAVOK 20/15 Q1015 R24/000070 NOSIG
VFR 20°C / 15°C variable 2kt >10km - Clouds and Visibility OK 1015 No Significant change UUWW 142000Z VRB01MPS CAVOK 20/15 Q1015 R24/000070 NOSIG
VFR 20°C / 15°C 20º 6kt >10km - Clouds and Visibility OK 1015 No Significant change UUWW 141930Z 02003MPS CAVOK 20/15 Q1015 R24/000070 NOSIG
VFR 20°C / 14°C 20º 6kt >10km - Clouds and Visibility OK 1015 No Significant change UUWW 141900Z 02003MPS CAVOK 20/14 Q1015 R24/000070 NOSIG
VFR 21°C / 14°C 30º 6kt >10km - Clouds and Visibility OK 1015 No Significant change UUWW 141830Z 03003MPS CAVOK 21/14 Q1015 R24/000070 NOSIG
VFR 22°C / 14°C 350º variable 310º to 020º 8kt >10km - Clouds and Visibility OK 1015 No Significant change UUWW 141800Z 35004MPS 310V020 CAVOK 22/14 Q1015 R24/000070 NOSIG
VFR 23°C / 14°C 300º 6kt >10km - Clouds and Visibility OK 1014 No Significant change UUWW 141730Z 30003MPS CAVOK 23/14 Q1014 R24/000070 NOSIG
VFR 24°C / 13°C 240º 6kt >10km - Clouds and Visibility OK 1014 No Significant change UUWW 141700Z 24003MPS CAVOK 24/13 Q1014 R24/000070 NOSIG

VFR

22°C / 16°C

[Больше]
Ветер 40º variable 010º to 100º 4kt
Видимость >10km
Погода -
Облачность Clouds and Visibility OK
Давление 1015
Изменить No Significant change
Необработанный UUWW 150430Z 04002MPS 010V100 CAVOK 22/16 Q1015 R24/000070 NOSIG

VFR

20°C / 16°C

[Больше]
Ветер 10º 4kt
Видимость >10km
Погода -
Облачность Clouds and Visibility OK
Давление 1015
Изменить No Significant change
Необработанный UUWW 150400Z 01002MPS CAVOK 20/16 Q1015 R24/000070 NOSIG

VFR

19°C / 16°C

[Больше]
Ветер 320º 4kt
Видимость >10km
Погода -
Облачность Clouds and Visibility OK
Давление 1015
Изменить No Significant change
Необработанный UUWW 150330Z 32002MPS CAVOK 19/16 Q1015 R24/000070 NOSIG

VFR

18°C / 16°C

[Больше]
Ветер 330º 4kt
Видимость >10km
Погода -
Облачность Clouds and Visibility OK
Давление 1015
Изменить No Significant change
Необработанный UUWW 150300Z 33002MPS CAVOK 18/16 Q1015 R24/000070 NOSIG

VFR

17°C / 15°C

[Больше]
Ветер 330º 4kt
Видимость >10km
Погода -
Облачность Clouds and Visibility OK
Давление 1015
Изменить No Significant change
Необработанный UUWW 150230Z 33002MPS CAVOK 17/15 Q1015 R24/000070 NOSIG

VFR

17°C / 15°C

[Больше]
Ветер 330º 2kt
Видимость >10km
Погода -
Облачность Clouds and Visibility OK
Давление 1015
Изменить No Significant change
Необработанный UUWW 150200Z 33001MPS CAVOK 17/15 Q1015 R24/000070 NOSIG

VFR

17°C / 15°C

[Больше]
Ветер variable 2kt
Видимость >10km
Погода -
Облачность Clouds and Visibility OK
Давление 1015
Изменить No Significant change
Необработанный UUWW 150130Z VRB01MPS CAVOK 17/15 Q1015 R24/000070 NOSIG

VFR

16°C / 15°C

[Больше]
Ветер 310º 4kt
Видимость >10km
Погода -
Облачность Clouds and Visibility OK
Давление 1015
Изменить No Significant change
Необработанный UUWW 150100Z 31002MPS CAVOK 16/15 Q1015 R24/000070 NOSIG

VFR

16°C / 14°C

[Больше]
Ветер 300º 2kt
Видимость >10km
Погода -
Облачность Clouds and Visibility OK
Давление 1015
Изменить No Significant change
Необработанный UUWW 150030Z 30001MPS CAVOK 16/14 Q1015 R24/000070 NOSIG

VFR

17°C / 15°C

[Больше]
Ветер variable 2kt
Видимость >10km
Погода -
Облачность Clouds and Visibility OK
Давление 1015
Изменить No Significant change
Необработанный UUWW 150000Z VRB01MPS CAVOK 17/15 Q1015 R24/000070 NOSIG

VFR

18°C / 15°C

[Больше]
Ветер 250º 2kt
Видимость >10km
Погода -
Облачность Clouds and Visibility OK
Давление 1015
Изменить No Significant change
Необработанный UUWW 142330Z 25001MPS CAVOK 18/15 Q1015 R24/000070 NOSIG

VFR

17°C / 15°C

[Больше]
Ветер variable 0kt
Видимость >10km
Погода -
Облачность Clouds and Visibility OK
Давление 1015
Изменить No Significant change
Необработанный UUWW 142300Z 00000MPS CAVOK 17/15 Q1015 R24/000070 NOSIG

VFR

18°C / 15°C

[Больше]
Ветер variable 2kt
Видимость >10km
Погода -
Облачность Clouds and Visibility OK
Давление 1015
Изменить No Significant change
Необработанный UUWW 142230Z VRB01MPS CAVOK 18/15 Q1015 R24/000070 NOSIG

VFR

18°C / 15°C

[Больше]
Ветер variable 2kt
Видимость >10km
Погода -
Облачность Clouds and Visibility OK
Давление 1015
Изменить No Significant change
Необработанный UUWW 142200Z VRB01MPS CAVOK 18/15 Q1015 R24/000070 NOSIG

VFR

19°C / 15°C

[Больше]
Ветер variable 2kt
Видимость >10km
Погода -
Облачность Clouds and Visibility OK
Давление 1015
Изменить No Significant change
Необработанный UUWW 142130Z VRB01MPS CAVOK 19/15 Q1015 R24/000070 NOSIG

VFR

19°C / 15°C

[Больше]
Ветер variable 0kt
Видимость >10km
Погода -
Облачность Clouds and Visibility OK
Давление 1015
Изменить No Significant change
Необработанный UUWW 142100Z 00000MPS CAVOK 19/15 Q1015 R24/000070 NOSIG

VFR

20°C / 15°C

[Больше]
Ветер variable 2kt
Видимость >10km
Погода -
Облачность Clouds and Visibility OK
Давление 1015
Изменить No Significant change
Необработанный UUWW 142030Z VRB01MPS CAVOK 20/15 Q1015 R24/000070 NOSIG

VFR

20°C / 15°C

[Больше]
Ветер variable 2kt
Видимость >10km
Погода -
Облачность Clouds and Visibility OK
Давление 1015
Изменить No Significant change
Необработанный UUWW 142000Z VRB01MPS CAVOK 20/15 Q1015 R24/000070 NOSIG

VFR

20°C / 15°C

[Больше]
Ветер 20º 6kt
Видимость >10km
Погода -
Облачность Clouds and Visibility OK
Давление 1015
Изменить No Significant change
Необработанный UUWW 141930Z 02003MPS CAVOK 20/15 Q1015 R24/000070 NOSIG

VFR

20°C / 14°C

[Больше]
Ветер 20º 6kt
Видимость >10km
Погода -
Облачность Clouds and Visibility OK
Давление 1015
Изменить No Significant change
Необработанный UUWW 141900Z 02003MPS CAVOK 20/14 Q1015 R24/000070 NOSIG

VFR

21°C / 14°C

[Больше]
Ветер 30º 6kt
Видимость >10km
Погода -
Облачность Clouds and Visibility OK
Давление 1015
Изменить No Significant change
Необработанный UUWW 141830Z 03003MPS CAVOK 21/14 Q1015 R24/000070 NOSIG

VFR

22°C / 14°C

[Больше]
Ветер 350º variable 310º to 020º 8kt
Видимость >10km
Погода -
Облачность Clouds and Visibility OK
Давление 1015
Изменить No Significant change
Необработанный UUWW 141800Z 35004MPS 310V020 CAVOK 22/14 Q1015 R24/000070 NOSIG

VFR

23°C / 14°C

[Больше]
Ветер 300º 6kt
Видимость >10km
Погода -
Облачность Clouds and Visibility OK
Давление 1014
Изменить No Significant change
Необработанный UUWW 141730Z 30003MPS CAVOK 23/14 Q1014 R24/000070 NOSIG

VFR

24°C / 13°C

[Больше]
Ветер 240º 6kt
Видимость >10km
Погода -
Облачность Clouds and Visibility OK
Давление 1014
Изменить No Significant change
Необработанный UUWW 141700Z 24003MPS CAVOK 24/13 Q1014 R24/000070 NOSIG

TAF для 55.6°С 37.27°В (UUWW)

From till


Maximum Temperature 26ºC on . Minimum Temperature 15ºC on .
From till Wind 330º 6kt. Visibility 10km or more. Scattered Clouds 3000ft.
Temporarly from till Wind variable 31kt. Visibility 1500m. Thunderstorm Rain Squalls . Few Clouds 700ft. Broken Clouds 2000ft.

Необработанный: TAF UUWW 150150Z 1503/1603 33003MPS 9999 SCT030 TX26/1512Z TN15/1601Z TEMPO 1509/1518 VRB16MPS 1500 TSRA SQ FEW007 BKN020CB

Текущие спутниковые изображения и снимки дождя для 55.6°С 37.27°В

Указатель местности находится на 55.6°С 37.27°В. [Больше]

Спутниковое изображение в реальном времени сочетает в себе видимый свет в дневное время с инфракрасным излучением в ночное время. Ночью изображение получается не темным, так как инфракрасное излучение может обнаружить разницу температур. К сожалению, низкие облака и туман трудно отличить от температуры у поверхности земли и поэтому могут быть почти незаметны ночью. Спутниковые снимки Meteosat для Европы обновляются каждые 5 минут в режиме реального времени.Снимки GOES-16/GOES-17 (Северная и Южная Америка) и Химавари (Азия) обновляются каждые 10 минут.

Копирайт 2021 EUMETSAT / meteoblue. / Копирайт 2021 meteoblue

Радарный и сверхкраткосрочный прогноз осадков для 55.6°С 37.27°В

Индикатор местности находится на 55.6°С 37.27°В. Анимация показывает радар осадков за последний час, а также прогноз погоды для1h. Умеренная морось или легкий снег могут быть незаметны для радара. Интенсивность осадковмаркированна цветной кодировкой, начиная со светло-синего и заканчивая темно-пурпурным.